Location: Lachepaillet
(43.4918°N, 1.4874°W)
Time: 02:59:22
(UTC+00:00)

SL-16 R/B - Pass Details

Date: 15 May 2026
Orbit: 841 x 844 km, 71.0° (Epoch: 8 June)

Event Time Altitude Azimuth Distance (km) Brightness Sun altitude
Rises 21:05:11 0° 335° (NNW) 3,413 6.8 -15.5°
Reaches altitude 10° 21:07:39 10° 337° (NNW) 2,474 5.8 -15.8°
Maximum altitude 21:13:21 81° 64° (ENE) 860 2.2 -16.5°
Enters shadow 21:16:34 27° 150° (SSE) 1,571 3.0 -16.8°
